| time (UTC) | temp F | wind direction | speed MPH | gust MPH | rain 1hr in | rain 24hr in | rain mn in | humidity % | barometer mb |
| 20260906024556 | 69 | 311 | 0.0 | 0.0 | 0.00 | 0.00 | 0.00 | 82 | 1011.7 |
| 20260906023052 | 69 | 311 | 0.0 | 0.0 | 0.00 | 0.00 | 0.00 | 83 | 1011.8 |
| 20260906021557 | 70 | 311 | 0.0 | 0.0 | 0.00 | 0.00 | 0.00 | 82 | 1011.8 |
| 20260906020049 | 70 | 311 | 0.0 | 2.0 | 0.00 | 0.00 | 0.00 | 82 | 1011.7 |
| 20260906014550 | 71 | 311 | 0.0 | 1.0 | 0.00 | 0.00 | 0.00 | 82 | 1011.5 |
| 20260906013048 | 71 | 312 | 0.0 | 2.0 | 0.00 | 0.00 | 0.00 | 82 | 1011.3 |
| 20260906011545 | 71 | 320 | 0.0 | 0.0 | 0.00 | 0.00 | 0.00 | 81 | 1011.2 |
| 20260906010054 | 72 | 320 | 0.0 | 1.0 | 0.00 | 0.00 | 0.00 | 80 | 1011.1 |
| 20260906004552 | 72 | 320 | 0.0 | 2.0 | 0.00 | 0.00 | 0.00 | 79 | 1010.9 |
| 20260906003042 | 73 | 320 | 0.0 | 1.0 | 0.00 | 0.00 | 0.00 | 79 | 1010.9 |
| 20260906001556 | 74 | 320 | 0.0 | 2.0 | 0.00 | 0.00 | 0.00 | 78 | 1010.7 |
| 20260906000041 | 74 | 320 | 0.0 | 1.0 | 0.00 | 0.00 | 0.00 | 76 | 1010.5 |
| 20260905234540 | 75 | 320 | 0.0 | 1.0 | 0.00 | 0.00 | 0.00 | 76 | 1010.5 |
| 20260905233040 | 76 | 320 | 0.0 | 2.0 | 0.00 | 0.00 | 0.00 | 75 | 1010.4 |
| 20260905231540 | 76 | 320 | 0.0 | 0.0 | 0.00 | 0.00 | 0.00 | 74 | 1010.3 |
| 20260905230040 | 77 | 320 | 0.0 | 1.0 | 0.00 | 0.00 | 0.00 | 74 | 1010.3 |
| 20260905224538 | 77 | 320 | 0.0 | 0.0 | 0.00 | 0.00 | 0.00 | 72 | 1010.4 |
| 20260905223048 | 78 | 320 | 0.0 | 0.0 | 0.00 | 0.00 | 0.00 | 70 | 1010.1 |
| 20260905221542 | 78 | 320 | 0.0 | 1.0 | 0.00 | 0.00 | 0.00 | 68 | 1009.9 |
| 20260905220036 | 79 | 320 | 0.0 | 2.0 | 0.00 | 0.00 | 0.00 | 68 | 1009.9 |
| 20260905214541 | 79 | 320 | 0.0 | 0.0 | 0.00 | 0.00 | 0.00 | 67 | 1009.9 |
| 20260905213036 | 80 | 320 | 0.0 | 2.0 | 0.00 | 0.00 | 0.00 | 65 | 1009.8 |
| 20260905211534 | 80 | 322 | 0.0 | 1.0 | 0.00 | 0.00 | 0.00 | 65 | 1009.6 |
| 20260905210045 | 80 | 323 | 0.0 | 3.0 | 0.00 | 0.00 | 0.00 | 65 | 1009.7 |
| 20260905204535 | 80 | 323 | 0.0 | 2.0 | 0.00 | 0.00 | 0.00 | 64 | 1009.7 |
| 20260905203034 | 80 | 325 | 1.0 | 3.0 | 0.00 | 0.00 | 0.00 | 65 | 1009.7 |
| 20260905201533 | 81 | 272 | 0.0 | 4.0 | 0.00 | 0.00 | 0.00 | 65 | 1009.8 |
| 20260905200056 | 81 | 303 | 0.0 | 3.0 | 0.00 | 0.00 | 0.00 | 67 | 1009.7 |
| 20260905194532 | 82 | 305 | 0.0 | 2.0 | 0.00 | 0.00 | 0.00 | 68 | 1009.6 |
| 20260905193036 | 82 | 1 | 0.0 | 4.0 | 0.00 | 0.00 | 0.00 | 68 | 1009.6 |
| 20260905191533 | 81 | 322 | 0.0 | 2.0 | 0.00 | 0.00 | 0.00 | 67 | 1009.7 |
| 20260905190030 | 80 | 321 | 0.0 | 4.0 | 0.00 | 0.00 | 0.00 | 69 | 1009.9 |
| 20260905184535 | 81 | 321 | 0.0 | 2.0 | 0.00 | 0.00 | 0.00 | 67 | 1010.2 |
| 20260905183038 | 81 | 321 | 0.0 | 2.0 | 0.00 | 0.00 | 0.00 | 66 | 1010.3 |
| 20260905181531 | 82 | 321 | 0.0 | 2.0 | 0.00 | 0.00 | 0.00 | 68 | 1010.6 |
| 20260905180032 | 82 | 321 | 0.0 | 2.0 | 0.00 | 0.00 | 0.00 | 65 | 1011.0 |
| 20260905174526 | 81 | 302 | 0.0 | 2.0 | 0.00 | 0.00 | 0.00 | 65 | 1011.2 |
| 20260905173038 | 80 | 302 | 0.0 | 1.0 | 0.00 | 0.00 | 0.00 | 68 | 1011.1 |
| 20260905171523 | 80 | 302 | 1.0 | 3.0 | 0.00 | 0.00 | 0.00 | 66 | 1011.5 |
| 20260905170023 | 80 | 296 | 1.0 | 3.0 | 0.00 | 0.00 | 0.00 | 67 | 1011.5 |
| 20260905164522 | 80 | 294 | 0.0 | 5.0 | 0.00 | 0.00 | 0.00 | 69 | 1011.4 |
| 20260905163022 | 80 | 295 | 1.0 | 3.0 | 0.00 | 0.00 | 0.00 | 67 | 1011.3 |
| 20260905161520 | 80 | 297 | 0.0 | 3.0 | 0.00 | 0.00 | 0.00 | 71 | 1011.3 |
| 20260905160020 | 80 | 300 | 2.0 | 5.0 | 0.00 | 0.00 | 0.00 | 67 | 1011.6 |
| 20260905154519 | 80 | 354 | 2.0 | 4.0 | 0.00 | 0.00 | 0.00 | 67 | 1011.5 |
| 20260905153026 | 81 | 323 | 1.0 | 5.0 | 0.00 | 0.00 | 0.00 | 67 | 1011.5 |
| 20260905151518 | 81 | 359 | 2.0 | 3.0 | 0.00 | 0.00 | 0.00 | 67 | 1011.8 |
| 20260905150023 | 81 | 320 | 1.0 | 4.0 | 0.00 | 0.00 | 0.00 | 69 | 1011.8 |
| 20260905144516 | 80 | 276 | 2.0 | 4.0 | 0.00 | 0.00 | 0.00 | 70 | 1011.8 |
| 20260905143015 | 80 | 359 | 1.0 | 5.0 | 0.00 | 0.00 | 0.00 | 73 | 1011.5 |
| 20260905141511 | 78 | 267 | 1.0 | 4.0 | 0.00 | 0.00 | 0.00 | 74 | 1011.2 |
| 20260905140006 | 78 | 359 | 0.0 | 5.0 | 0.00 | 0.00 | 0.00 | 77 | 1010.9 |
| 20260905134511 | 77 | 6 | 0.0 | 4.0 | 0.00 | 0.00 | 0.00 | 75 | 1011.0 |
| 20260905133100 | 77 | 354 | 1.0 | 5.0 | 0.00 | 0.00 | 0.00 | 80 | 1011.1 |
| 20260905131606 | 76 | 16 | 1.0 | 6.0 | 0.00 | 0.00 | 0.00 | 80 | 1010.9 |
| 20260905130057 | 76 | 37 | 1.0 | 7.0 | 0.00 | 0.00 | 0.00 | 82 | 1010.7 |
| 20260905124555 | 75 | 11 | 2.0 | 4.0 | 0.00 | 0.00 | 0.00 | 82 | 1010.9 |
| 20260905123107 | 74 | 28 | 1.0 | 3.0 | 0.00 | 0.00 | 0.00 | 84 | 1010.7 |
| 20260905121549 | 74 | 247 | 0.0 | 3.0 | 0.00 | 0.00 | 0.00 | 84 | 1010.6 |
| 20260905120049 | 73 | 241 | 1.0 | 5.0 | 0.00 | 0.00 | 0.00 | 84 | 1010.7 |
| 20260905114549 | 73 | 30 | 1.0 | 2.0 | 0.00 | 0.00 | 0.00 | 85 | 1010.7 |
| 20260905113048 | 72 | 31 | 0.0 | 2.0 | 0.00 | 0.00 | 0.00 | 85 | 1010.5 |
| 20260905111551 | 72 | 226 | 0.0 | 2.0 | 0.00 | 0.00 | 0.00 | 85 | 1010.3 |
| 20260905110047 | 72 | 226 | 0.0 | 1.0 | 0.00 | 0.00 | 0.00 | 84 | 1010.1 |
| 20260905104543 | 72 | 236 | 0.0 | 2.0 | 0.00 | 0.00 | 0.00 | 84 | 1009.9 |
| 20260905103052 | 72 | 236 | 0.0 | 3.0 | 0.00 | 0.00 | 0.00 | 83 | 1010.0 |
| 20260905101542 | 72 | 252 | 0.0 | 2.0 | 0.00 | 0.00 | 0.00 | 83 | 1009.8 |
| 20260905100052 | 73 | 253 | 0.0 | 3.0 | 0.00 | 0.00 | 0.00 | 83 | 1009.6 |
| 20260905094540 | 73 | 256 | 0.0 | 0.0 | 0.00 | 0.01 | 0.00 | 83 | 1009.4 |
| 20260905093139 | 73 | 257 | 0.0 | 2.0 | 0.00 | 0.01 | 0.00 | 82 | 1009.4 |
| 20260905091544 | 73 | 277 | 0.0 | 3.0 | 0.00 | 0.01 | 0.00 | 82 | 1009.4 |
| 20260905090037 | 73 | 1 | 0.0 | 3.0 | 0.00 | 0.01 | 0.00 | 82 | 1009.5 |
| 20260905084537 | 73 | 235 | 0.0 | 3.0 | 0.00 | 0.07 | 0.00 | 82 | 1009.5 |
| 20260905083036 | 74 | 253 | 0.0 | 2.0 | 0.00 | 0.07 | 0.00 | 82 | 1009.5 |
| 20260905081534 | 74 | 253 | 0.0 | 3.0 | 0.00 | 0.07 | 0.00 | 81 | 1009.6 |
| 20260905074534 | 74 | 53 | 1.0 | 4.0 | 0.00 | 0.07 | 0.00 | 81 | 1009.6 |
| 20260905073033 | 74 | 238 | 1.0 | 5.0 | 0.00 | 0.07 | 0.00 | 81 | 1009.7 |
| 20260905071532 | 74 | 26 | 1.0 | 5.0 | 0.00 | 0.07 | 0.00 | 82 | 1009.8 |
| 20260905070038 | 74 | 301 | 1.0 | 5.0 | 0.00 | 0.07 | 0.00 | 83 | 1010.0 |
| 20260905064529 | 74 | 217 | 0.0 | 6.0 | 0.00 | 0.08 | 0.00 | 83 | 1010.1 |
| 20260905063026 | 73 | 283 | 1.0 | 4.0 | 0.00 | 0.08 | 0.00 | 84 | 1010.2 |
| 20260905061526 | 73 | 236 | 0.0 | 3.0 | 0.00 | 0.08 | 0.00 | 84 | 1010.3 |
| 20260905060040 | 73 | 295 | 0.0 | 2.0 | 0.00 | 0.08 | 0.00 | 84 | 1010.3 |
| 20260905054521 | 73 | 331 | 1.0 | 4.0 | 0.00 | 0.10 | 0.00 | 84 | 1010.4 |
| 20260905053020 | 74 | 293 | 0.0 | 4.0 | 0.00 | 0.10 | 0.00 | 84 | 1010.6 |
| 20260905051523 | 74 | 274 | 0.0 | 3.0 | 0.00 | 0.10 | 0.00 | 84 | 1010.8 |
| 20260905050021 | 74 | 360 | 0.0 | 4.0 | 0.00 | 0.10 | 0.00 | 84 | 1011.0 |
| 20260905044521 | 74 | 359 | 0.0 | 6.0 | 0.00 | 0.95 | 0.00 | 84 | 1011.0 |
| 20260905043013 | 74 | 285 | 1.0 | 5.0 | 0.00 | 0.95 | 0.00 | 83 | 1011.0 |
| 20260905041512 | 74 | 326 | 1.0 | 7.0 | 0.00 | 0.95 | 0.00 | 83 | 1011.1 |
| 20260905040011 | 74 | 341 | 1.0 | 4.0 | 0.00 | 0.95 | 0.00 | 84 | 1011.0 |
| 20260905034514 | 74 | 301 | 1.0 | 4.0 | 0.00 | 0.95 | 0.95 | 84 | 1011.2 |
| 20260905033008 | 74 | 302 | 1.0 | 4.0 | 0.00 | 0.95 | 0.95 | 84 | 1011.2 |
| 20260905031509 | 74 | 310 | 1.0 | 5.0 | 0.00 | 0.95 | 0.95 | 84 | 1011.4 |
| 20260905030006 | 74 | 214 | 0.0 | 3.0 | 0.00 | 0.95 | 0.95 | 84 | 1011.2 |